STARLINK-11119, 60121

Orbit data source: Space-Track

STARLINK-11119, 60121 is a payload satellite owned by SpaceX/Seattle (US) in LEO that was launched on Mon, 24 Jun 2024 UTC via an FALCON 9 launch vehicle from the Air Force Western Test Range (AFWTR). Payload-class satellites include a variety of spacecraft equipped with specific instruments for various scientific and technological missions. These include communications satellites like Starlink; space stations such as the ISS; scientific satellites like the Hubble; Earth observation satellites from companies like Planet Labs, Umbra, and HawkEye 360; GPS; miniature CubeSats for education and research; and military/defense satellites.

Loading next visibility...
Identifier
60121, 2024-118J
Orbit
LEO
Country
Flag of USUS
Related business
Manufacturer
SpaceX/Seattle
Mission
Operational Commercial Communications
Bus & Motor
STARLINK V2MD, Unknown motor
Mass
960 kg wet, ~910 kg dry
Launch date (UTC)
2024-06-24 (2 years ago)
Launch vehicle
FALCON 9
Launch site
Air Force Western Test Range (AFWTR)
Object type
Payload
Rocket body
Debris
Shape & HBR
Box + 2 Pan, 18.1 m
Radar Cross Section
36.964 m², Large (>1 m²)

Expand to show TLE details & history
Last TLE update: 11 hours ago

TLE from 11 hours ago
0 STARLINK-11119
1 60121U 24118J   26126.86378105 -.00001126  00000-0 -44461-5 0  9997
2 60121  53.1597 294.2225 0000640 119.4972 240.6110 15.69708760107136
Epoch: 2026-05-06T20:43Z
TLE epoch observation values (Epoch: 2026-05-06T20:43:50.682Z)
Latitude
-0.00002°
Longitude
118.54315°
Altitude
360.857 km
Speed
7.694 km/s
True Right ascension
19h 36m 53s
True Declination
0° 00' 00"
Sunlit
Object was in partial shadow at epoch
Visualization orbit readout
Latitude
Unknown
Longitude
Unknown
Altitude
Unknown
Speed
Unknown
Apparent Right ascension
Unknown
Apparent Declination
Unknown
Sunlit
N/A
Visualization observer readout
Local Sidereal Time
15:35:14
Azimuth
Unknown
Elevation
Unknown
Doppler factor
Unknown
Orbital elements
Apogee altitude
360.422 km
Perigee altitude
359.56 km
Semi-major axis
6,738.128 km
Eccentricity
0.00006
Inclination
53.1597°
RAAN
294.2225°
Arg. of periapsis
119.4972°
True anomaly
240.60461°
Mean anomaly
240.611°
Eccentric anomaly
240.60781°
Mean motion
3.92405 °/min
Orbital period
91.74 mins
BSTAR
-0.0000044461
Loading maneuver chart data...
Computing Atmospheric mass density...
Loading historical data...
Loading historical data...
Loading historical data...
Loading historical data...
Loading historical data...
Loading historical data...
Loading historical data...

Documentation

Showing up to 5 results
|